| time (UTC) | temp F | wind direction | speed MPH | gust MPH | rain 1hr in | rain 24hr in | rain mn in | humidity % | barometer mb |
| 20260906174511 | 98 | 273 | 0.0 | 5.0 | 0.00 | 0.00 | 0.00 | 48 | 1011.5 |
| 20260906173506 | 99 | 176 | 4.0 | 10.0 | 0.00 | 0.00 | 0.00 | 49 | 1012.1 |
| 20260906173003 | 99 | 190 | 3.0 | 10.0 | 0.00 | 0.00 | 0.00 | 50 | 1011.8 |
| 20260906172606 | 98 | 250 | 3.0 | 7.0 | 0.00 | 0.00 | 0.00 | 50 | 1012.2 |
| 20260906171613 | 98 | 338 | 2.0 | 5.0 | 0.00 | 0.00 | 0.00 | 51 | 1012.0 |
| 20260906170806 | 99 | 173 | 4.0 | 9.0 | 0.00 | 0.00 | 0.00 | 50 | 1012.4 |
| 20260906170009 | 99 | 196 | 5.0 | 9.0 | 0.00 | 0.00 | 0.00 | 50 | 1012.1 |
| 20260906165006 | 98 | 186 | 2.0 | 7.0 | 0.00 | 0.00 | 0.00 | 51 | 1012.6 |
| 20260906164610 | 97 | 355 | 2.0 | 6.0 | 0.00 | 0.00 | 0.00 | 51 | 1012.3 |
| 20260906164106 | 97 | 159 | 3.0 | 5.0 | 0.00 | 0.00 | 0.00 | 53 | 1012.7 |
| 20260906163207 | 96 | 323 | 3.0 | 6.0 | 0.00 | 0.00 | 0.00 | 54 | 1012.7 |
| 20260906163006 | 95 | 313 | 3.0 | 7.0 | 0.00 | 0.00 | 0.00 | 55 | 1012.3 |
| 20260906162306 | 95 | 331 | 4.0 | 7.0 | 0.00 | 0.00 | 0.00 | 55 | 1012.9 |
| 20260906161505 | 95 | 15 | 3.0 | 6.0 | 0.00 | 0.00 | 0.00 | 55 | 1012.5 |
| 20260906161406 | 95 | 312 | 3.0 | 6.0 | 0.00 | 0.00 | 0.00 | 55 | 1012.9 |
| 20260906160506 | 96 | 282 | 2.0 | 6.0 | 0.00 | 0.00 | 0.00 | 56 | 1012.9 |
| 20260906160006 | 95 | 286 | 1.0 | 5.0 | 0.00 | 0.00 | 0.00 | 56 | 1012.6 |
| 20260906155606 | 94 | 319 | 2.0 | 5.0 | 0.00 | 0.00 | 0.00 | 58 | 1012.9 |
| 20260906154706 | 93 | 320 | 2.0 | 5.0 | 0.00 | 0.00 | 0.00 | 59 | 1012.9 |
| 20260906154606 | 93 | 306 | 2.0 | 5.0 | 0.00 | 0.00 | 0.00 | 59 | 1012.6 |
| 20260906153806 | 92 | 317 | 2.0 | 4.0 | 0.00 | 0.00 | 0.00 | 61 | 1012.9 |
| 20260906153005 | 91 | 81 | 1.0 | 5.0 | 0.00 | 0.00 | 0.00 | 62 | 1012.6 |
| 20260906152906 | 92 | 334 | 2.0 | 5.0 | 0.00 | 0.00 | 0.00 | 62 | 1013.0 |
| 20260906152006 | 91 | 325 | 2.0 | 4.0 | 0.00 | 0.00 | 0.00 | 63 | 1012.9 |
| 20260906151606 | 90 | 324 | 2.0 | 4.0 | 0.00 | 0.00 | 0.00 | 63 | 1012.5 |
| 20260906151106 | 90 | 348 | 1.0 | 3.0 | 0.00 | 0.00 | 0.00 | 65 | 1012.9 |
| 20260906150206 | 89 | 258 | 1.0 | 4.0 | 0.00 | 0.00 | 0.00 | 69 | 1013.0 |
| 20260906150008 | 89 | 169 | 1.0 | 4.0 | 0.00 | 0.00 | 0.00 | 68 | 1012.6 |
| 20260906145307 | 88 | 303 | 1.0 | 4.0 | 0.00 | 0.00 | 0.00 | 69 | 1013.1 |
| 20260906144608 | 87 | 296 | 0.0 | 4.0 | 0.00 | 0.00 | 0.00 | 70 | 1012.8 |
| 20260906144406 | 87 | 289 | 1.0 | 3.0 | 0.00 | 0.00 | 0.00 | 71 | 1013.1 |
| 20260906143506 | 86 | 73 | 1.0 | 2.0 | 0.00 | 0.00 | 0.00 | 74 | 1013.0 |
| 20260906143112 | 85 | 135 | 0.0 | 4.0 | 0.00 | 0.00 | 0.00 | 75 | 1012.8 |
| 20260906142606 | 85 | 194 | 1.0 | 4.0 | 0.00 | 0.00 | 0.00 | 76 | 1013.2 |
| 20260906141706 | 84 | 205 | 1.0 | 4.0 | 0.00 | 0.00 | 0.00 | 78 | 1013.4 |
| 20260906141504 | 83 | 228 | 1.0 | 4.0 | 0.00 | 0.00 | 0.00 | 78 | 1013.0 |
| 20260906140806 | 83 | 229 | 1.0 | 4.0 | 0.00 | 0.00 | 0.00 | 81 | 1013.4 |
| 20260906140107 | 81 | 159 | 0.0 | 4.0 | 0.00 | 0.00 | 0.00 | 83 | 1013.0 |
| 20260906135906 | 82 | 215 | 2.0 | 4.0 | 0.00 | 0.00 | 0.00 | 83 | 1013.4 |
| 20260906135006 | 80 | 229 | 1.0 | 4.0 | 0.00 | 0.00 | 0.00 | 86 | 1013.4 |
| 20260906134606 | 79 | 261 | 0.0 | 3.0 | 0.00 | 0.00 | 0.00 | 87 | 1013.1 |
| 20260906134106 | 79 | 240 | 1.0 | 3.0 | 0.00 | 0.00 | 0.00 | 89 | 1013.5 |
| 20260906133015 | 77 | 205 | 0.0 | 2.0 | 0.00 | 0.00 | 0.00 | 93 | 1013.1 |
| 20260906131505 | 76 | 5 | 0.0 | 0.0 | 0.00 | 0.00 | 0.00 | 95 | 1013.0 |
| 20260906131406 | 76 | 0 | 0.0 | 0.0 | 0.00 | 0.00 | 0.00 | 95 | 1013.3 |
| 20260906130104 | 75 | 5 | 0.0 | 0.0 | 0.00 | 0.00 | 0.00 | 95 | 1012.9 |
| 20260906125606 | 75 | 0 | 0.0 | 0.0 | 0.00 | 0.00 | 0.00 | 94 | 1013.2 |
| 20260906124706 | 74 | 0 | 0.0 | 0.0 | 0.00 | 0.00 | 0.00 | 94 | 1013.3 |
| 20260906124605 | 74 | 5 | 0.0 | 0.0 | 0.00 | 0.00 | 0.00 | 94 | 1013.0 |
| 20260906123807 | 74 | 0 | 0.0 | 0.0 | 0.00 | 0.00 | 0.00 | 94 | 1013.3 |
| 20260906123004 | 73 | 290 | 0.0 | 0.0 | 0.00 | 0.00 | 0.00 | 94 | 1012.8 |
| 20260906122906 | 74 | 0 | 0.0 | 0.0 | 0.00 | 0.00 | 0.00 | 93 | 1013.1 |
| 20260906122006 | 74 | 0 | 0.0 | 0.0 | 0.00 | 0.00 | 0.00 | 93 | 1013.1 |
| 20260906121507 | 73 | 333 | 0.0 | 0.0 | 0.00 | 0.00 | 0.00 | 93 | 1012.6 |
| 20260906121106 | 74 | 0 | 0.0 | 0.0 | 0.00 | 0.00 | 0.00 | 93 | 1012.9 |
| 20260906120206 | 74 | 0 | 0.0 | 0.0 | 0.00 | 0.00 | 0.00 | 93 | 1012.8 |
| 20260906120004 | 73 | 333 | 0.0 | 0.0 | 0.00 | 0.00 | 0.00 | 93 | 1012.5 |
| 20260906115306 | 74 | 0 | 0.0 | 0.0 | 0.00 | 0.00 | 0.00 | 93 | 1012.7 |
| 20260906114632 | 74 | 350 | 0.0 | 0.0 | 0.00 | 0.00 | 0.00 | 93 | 1012.3 |
| 20260906114406 | 74 | 0 | 0.0 | 0.0 | 0.00 | 0.00 | 0.00 | 93 | 1012.6 |
| 20260906113506 | 74 | 0 | 0.0 | 0.0 | 0.00 | 0.00 | 0.00 | 92 | 1012.5 |
| 20260906113011 | 74 | 188 | 0.0 | 0.0 | 0.00 | 0.00 | 0.00 | 92 | 1012.1 |
| 20260906112606 | 74 | 0 | 0.0 | 0.0 | 0.00 | 0.00 | 0.00 | 92 | 1012.5 |
| 20260906111506 | 74 | 188 | 0.0 | 0.0 | 0.00 | 0.00 | 0.00 | 93 | 1011.9 |
| 20260906110806 | 74 | 0 | 0.0 | 0.0 | 0.00 | 0.00 | 0.00 | 92 | 1012.1 |
| 20260906110004 | 74 | 188 | 0.0 | 0.0 | 0.00 | 0.00 | 0.00 | 92 | 1011.6 |
| 20260906105906 | 74 | 0 | 0.0 | 0.0 | 0.00 | 0.00 | 0.00 | 92 | 1011.9 |
| 20260906105006 | 74 | 0 | 0.0 | 0.0 | 0.00 | 0.00 | 0.00 | 92 | 1011.8 |
| 20260906104502 | 74 | 188 | 0.0 | 0.0 | 0.00 | 0.00 | 0.00 | 92 | 1011.4 |
| 20260906103206 | 75 | 0 | 0.0 | 0.0 | 0.00 | 0.00 | 0.00 | 92 | 1011.6 |
| 20260906103018 | 74 | 188 | 0.0 | 0.0 | 0.00 | 0.00 | 0.00 | 91 | 1011.3 |
| 20260906102306 | 75 | 0 | 0.0 | 0.0 | 0.00 | 0.00 | 0.00 | 91 | 1011.6 |
| 20260906101510 | 74 | 188 | 0.0 | 0.0 | 0.00 | 0.00 | 0.00 | 91 | 1011.3 |
| 20260906101406 | 75 | 0 | 0.0 | 0.0 | 0.00 | 0.00 | 0.00 | 91 | 1011.6 |
| 20260906100506 | 75 | 0 | 0.0 | 0.0 | 0.00 | 0.00 | 0.00 | 91 | 1011.6 |
| 20260906100107 | 75 | 188 | 0.0 | 0.0 | 0.00 | 0.00 | 0.00 | 91 | 1011.2 |
| 20260906095606 | 75 | 0 | 0.0 | 0.0 | 0.00 | 0.00 | 0.00 | 91 | 1011.6 |
| 20260906094706 | 75 | 0 | 0.0 | 0.0 | 0.00 | 0.00 | 0.00 | 91 | 1011.5 |
| 20260906094504 | 75 | 188 | 0.0 | 0.0 | 0.00 | 0.00 | 0.00 | 91 | 1011.1 |
| 20260906093806 | 75 | 0 | 0.0 | 0.0 | 0.00 | 0.00 | 0.00 | 91 | 1011.4 |
| 20260906093105 | 75 | 188 | 0.0 | 0.0 | 0.00 | 0.00 | 0.00 | 91 | 1011.1 |
| 20260906092906 | 76 | 0 | 0.0 | 0.0 | 0.00 | 0.00 | 0.00 | 91 | 1011.5 |
| 20260906092006 | 76 | 0 | 0.0 | 0.0 | 0.00 | 0.00 | 0.00 | 91 | 1011.4 |
| 20260906091515 | 75 | 188 | 0.0 | 0.0 | 0.00 | 0.00 | 0.00 | 91 | 1010.9 |
| 20260906091106 | 76 | 0 | 0.0 | 0.0 | 0.00 | 0.00 | 0.00 | 91 | 1011.2 |
| 20260906090206 | 76 | 0 | 0.0 | 0.0 | 0.00 | 0.00 | 0.00 | 90 | 1011.2 |
| 20260906090105 | 75 | 188 | 0.0 | 0.0 | 0.00 | 0.00 | 0.00 | 89 | 1010.9 |
| 20260906084504 | 75 | 188 | 0.0 | 0.0 | 0.00 | 0.00 | 0.00 | 88 | 1011.0 |
| 20260906084406 | 76 | 0 | 0.0 | 0.0 | 0.00 | 0.00 | 0.00 | 89 | 1011.3 |
| 20260906083506 | 76 | 0 | 0.0 | 0.0 | 0.00 | 0.00 | 0.00 | 88 | 1011.3 |
| 20260906083006 | 76 | 188 | 0.0 | 0.0 | 0.00 | 0.00 | 0.00 | 88 | 1010.9 |
| 20260906081706 | 76 | 0 | 0.0 | 0.0 | 0.00 | 0.00 | 0.00 | 88 | 1011.2 |
| 20260906081503 | 76 | 188 | 0.0 | 0.0 | 0.00 | 0.00 | 0.00 | 88 | 1010.9 |
| 20260906080806 | 76 | 0 | 0.0 | 0.0 | 0.00 | 0.00 | 0.00 | 88 | 1011.3 |
| 20260906080010 | 76 | 188 | 0.0 | 0.0 | 0.00 | 0.00 | 0.00 | 88 | 1010.9 |
| 20260906075906 | 77 | 0 | 0.0 | 0.0 | 0.00 | 0.00 | 0.00 | 87 | 1011.3 |
| 20260906074606 | 76 | 188 | 0.0 | 0.0 | 0.00 | 0.00 | 0.00 | 88 | 1010.7 |
| 20260906074106 | 77 | 0 | 0.0 | 0.0 | 0.00 | 0.00 | 0.00 | 87 | 1011.2 |
| 20260906073005 | 77 | 188 | 0.0 | 1.0 | 0.00 | 0.00 | 0.00 | 87 | 1010.9 |
| 20260906072306 | 77 | 189 | 0.0 | 1.0 | 0.00 | 0.00 | 0.00 | 87 | 1011.3 |
| 20260906071604 | 77 | 188 | 0.0 | 1.0 | 0.00 | 0.00 | 0.00 | 86 | 1011.1 |
| 20260906071406 | 77 | 188 | 0.0 | 2.0 | 0.00 | 0.00 | 0.00 | 85 | 1011.4 |
| 20260906070506 | 78 | 188 | 1.0 | 2.0 | 0.00 | 0.00 | 0.00 | 86 | 1011.5 |
| 20260906070009 | 77 | 188 | 0.0 | 3.0 | 0.00 | 0.00 | 0.00 | 86 | 1011.2 |
| 20260906065606 | 78 | 189 | 1.0 | 3.0 | 0.00 | 0.00 | 0.00 | 86 | 1011.6 |
| 20260906064706 | 78 | 188 | 0.0 | 2.0 | 0.00 | 0.00 | 0.00 | 85 | 1011.5 |
| 20260906064505 | 78 | 188 | 0.0 | 2.0 | 0.00 | 0.00 | 0.00 | 85 | 1011.2 |
| 20260906063806 | 78 | 188 | 0.0 | 2.0 | 0.00 | 0.00 | 0.00 | 84 | 1011.5 |
| 20260906063103 | 78 | 188 | 0.0 | 1.0 | 0.00 | 0.00 | 0.00 | 83 | 1011.1 |
| 20260906062906 | 79 | 189 | 0.0 | 1.0 | 0.00 | 0.00 | 0.00 | 83 | 1011.5 |
| 20260906062006 | 79 | 0 | 0.0 | 0.0 | 0.00 | 0.00 | 0.00 | 82 | 1011.5 |
| 20260906061510 | 78 | 188 | 0.0 | 1.0 | 0.00 | 0.00 | 0.00 | 82 | 1011.1 |
| 20260906060206 | 79 | 189 | 1.0 | 3.0 | 0.00 | 0.00 | 0.00 | 83 | 1011.3 |
| 20260906060109 | 79 | 188 | 0.0 | 3.0 | 0.00 | 0.00 | 0.00 | 83 | 1011.0 |
| 20260906055306 | 79 | 189 | 0.0 | 2.0 | 0.00 | 0.00 | 0.00 | 82 | 1011.3 |
| 20260906054637 | 79 | 188 | 0.0 | 0.0 | 0.00 | 0.00 | 0.00 | 81 | 1011.0 |
| 20260906054406 | 80 | 0 | 0.0 | 0.0 | 0.00 | 0.00 | 0.00 | 81 | 1011.4 |
| 20260906053506 | 80 | 0 | 0.0 | 0.0 | 0.00 | 0.00 | 0.00 | 80 | 1011.4 |
| 20260906053104 | 80 | 188 | 0.0 | 0.0 | 0.00 | 0.00 | 0.00 | 80 | 1011.0 |
| 20260906052606 | 80 | 0 | 0.0 | 0.0 | 0.00 | 0.00 | 0.00 | 80 | 1011.4 |
| 20260906051706 | 81 | 0 | 0.0 | 0.0 | 0.00 | 0.00 | 0.00 | 79 | 1011.4 |
| 20260906051504 | 80 | 188 | 0.0 | 0.0 | 0.00 | 0.00 | 0.00 | 79 | 1011.0 |
| 20260906050806 | 81 | 0 | 0.0 | 0.0 | 0.00 | 0.00 | 0.00 | 78 | 1011.3 |
| 20260906050108 | 81 | 188 | 0.0 | 0.0 | 0.00 | 0.00 | 0.00 | 77 | 1011.0 |
| 20260906045906 | 81 | 0 | 0.0 | 0.0 | 0.00 | 0.00 | 0.00 | 76 | 1011.3 |
| 20260906045006 | 82 | 0 | 0.0 | 0.0 | 0.00 | 0.00 | 0.00 | 77 | 1011.2 |
| 20260906044606 | 81 | 188 | 0.0 | 0.0 | 0.00 | 0.00 | 0.00 | 76 | 1010.8 |
| 20260906044106 | 82 | 0 | 0.0 | 0.0 | 0.00 | 0.00 | 0.00 | 77 | 1011.0 |
| 20260906043206 | 82 | 0 | 0.0 | 0.0 | 0.00 | 0.00 | 0.00 | 76 | 1011.2 |
| 20260906043004 | 82 | 188 | 0.0 | 0.0 | 0.00 | 0.00 | 0.00 | 76 | 1010.9 |
| 20260906042307 | 82 | 189 | 0.0 | 1.0 | 0.00 | 0.00 | 0.00 | 76 | 1011.2 |
| 20260906041503 | 82 | 188 | 0.0 | 1.0 | 0.00 | 0.00 | 0.00 | 75 | 1010.7 |
| 20260906041406 | 83 | 189 | 0.0 | 1.0 | 0.00 | 0.00 | 0.00 | 75 | 1011.0 |
| 20260906040506 | 83 | 187 | 1.0 | 3.0 | 0.00 | 0.00 | 0.00 | 74 | 1011.2 |
| 20260906040114 | 83 | 188 | 0.0 | 3.0 | 0.00 | 0.00 | 0.00 | 74 | 1010.8 |
| 20260906035606 | 83 | 181 | 0.0 | 3.0 | 0.00 | 0.00 | 0.00 | 74 | 1011.2 |
| 20260906034706 | 83 | 188 | 2.0 | 5.0 | 0.00 | 0.00 | 0.00 | 74 | 1011.2 |
| 20260906034508 | 83 | 145 | 1.0 | 5.0 | 0.00 | 0.00 | 0.00 | 74 | 1010.8 |
| 20260906033806 | 84 | 190 | 2.0 | 4.0 | 0.00 | 0.00 | 0.00 | 73 | 1011.0 |
| 20260906033005 | 83 | 209 | 2.0 | 4.0 | 0.00 | 0.00 | 0.00 | 72 | 1010.9 |
| 20260906032906 | 84 | 178 | 2.0 | 4.0 | 0.00 | 0.00 | 0.00 | 72 | 1011.2 |
| 20260906032006 | 84 | 175 | 3.0 | 5.0 | 0.00 | 0.00 | 0.00 | 71 | 1011.2 |
| 20260906031615 | 84 | 179 | 3.0 | 5.0 | 0.00 | 0.00 | 0.00 | 71 | 1010.9 |
| 20260906030206 | 86 | 178 | 2.0 | 5.0 | 0.00 | 0.00 | 0.00 | 69 | 1011.0 |
| 20260906030009 | 85 | 191 | 1.0 | 5.0 | 0.00 | 0.00 | 0.00 | 69 | 1010.8 |
| 20260906025306 | 86 | 172 | 2.0 | 5.0 | 0.00 | 0.00 | 0.00 | 68 | 1011.1 |
| 20260906024608 | 86 | 201 | 3.0 | 5.0 | 0.00 | 0.00 | 0.00 | 67 | 1010.7 |
| 20260906024406 | 87 | 174 | 1.0 | 4.0 | 0.00 | 0.00 | 0.00 | 67 | 1011.1 |
| 20260906023506 | 87 | 186 | 2.0 | 5.0 | 0.00 | 0.00 | 0.00 | 66 | 1011.2 |
| 20260906023004 | 87 | 205 | 0.0 | 7.0 | 0.00 | 0.00 | 0.00 | 65 | 1010.7 |
| 20260906021706 | 88 | 174 | 4.0 | 10.0 | 0.00 | 0.00 | 0.00 | 64 | 1011.0 |
| 20260906021503 | 88 | 149 | 5.0 | 10.0 | 0.00 | 0.00 | 0.00 | 65 | 1010.8 |
| 20260906020806 | 89 | 173 | 6.0 | 14.0 | 0.00 | 0.00 | 0.00 | 65 | 1011.1 |
| 20260906020005 | 89 | 163 | 5.0 | 10.0 | 0.00 | 0.00 | 0.00 | 64 | 1010.6 |
| 20260906015906 | 90 | 184 | 2.0 | 10.0 | 0.00 | 0.00 | 0.00 | 64 | 1010.9 |
| 20260906015006 | 90 | 178 | 3.0 | 6.0 | 0.00 | 0.00 | 0.00 | 63 | 1010.7 |
| 20260906014515 | 90 | 171 | 3.0 | 6.0 | 0.00 | 0.00 | 0.00 | 63 | 1010.3 |
| 20260906014106 | 90 | 177 | 3.0 | 6.0 | 0.00 | 0.00 | 0.00 | 63 | 1010.6 |
| 20260906013206 | 91 | 173 | 3.0 | 7.0 | 0.00 | 0.00 | 0.00 | 61 | 1010.5 |
| 20260906013041 | 90 | 180 | 4.0 | 7.0 | 0.00 | 0.00 | 0.00 | 61 | 1010.1 |
| 20260906011509 | 91 | 166 | 4.0 | 8.0 | 0.00 | 0.00 | 0.00 | 57 | 1009.9 |
| 20260906011406 | 92 | 155 | 3.0 | 8.0 | 0.00 | 0.00 | 0.00 | 57 | 1010.2 |
| 20260906010506 | 93 | 140 | 1.0 | 2.0 | 0.00 | 0.00 | 0.00 | 55 | 1010.0 |
| 20260906010103 | 93 | 140 | 0.0 | 2.0 | 0.00 | 0.00 | 0.00 | 55 | 1009.6 |
| 20260906005606 | 94 | 139 | 1.0 | 2.0 | 0.00 | 0.00 | 0.00 | 54 | 1009.9 |
| 20260906004706 | 94 | 140 | 1.0 | 2.0 | 0.00 | 0.00 | 0.00 | 54 | 1009.7 |
| 20260906004605 | 94 | 140 | 1.0 | 2.0 | 0.00 | 0.00 | 0.00 | 53 | 1009.3 |
| 20260906003806 | 94 | 138 | 0.0 | 3.0 | 0.00 | 0.00 | 0.00 | 53 | 1009.6 |
| 20260906003103 | 94 | 140 | 0.0 | 3.0 | 0.00 | 0.00 | 0.00 | 52 | 1009.2 |
| 20260906002906 | 95 | 130 | 0.0 | 2.0 | 0.00 | 0.00 | 0.00 | 52 | 1009.5 |
| 20260906002006 | 95 | 130 | 1.0 | 2.0 | 0.00 | 0.00 | 0.00 | 51 | 1009.5 |
| 20260906001510 | 95 | 130 | 0.0 | 2.0 | 0.00 | 0.00 | 0.00 | 52 | 1009.1 |
| 20260906000206 | 96 | 171 | 2.0 | 3.0 | 0.00 | 0.00 | 0.00 | 50 | 1009.5 |
| 20260906000108 | 96 | 171 | 1.0 | 3.0 | 0.00 | 0.00 | 0.00 | 50 | 1009.0 |
| 20260905235307 | 96 | 175 | 1.0 | 3.0 | 0.00 | 0.00 | 0.00 | 50 | 1009.3 |
| 20260905234505 | 96 | 194 | 1.0 | 3.0 | 0.00 | 0.00 | 0.00 | 49 | 1008.8 |
| 20260905234406 | 97 | 166 | 1.0 | 3.0 | 0.00 | 0.00 | 0.00 | 49 | 1009.1 |
| 20260905233506 | 97 | 165 | 3.0 | 7.0 | 0.00 | 0.00 | 0.00 | 48 | 1009.1 |
| 20260905233009 | 97 | 166 | 3.0 | 7.0 | 0.00 | 0.00 | 0.00 | 47 | 1008.8 |
| 20260905232606 | 98 | 158 | 4.0 | 7.0 | 0.00 | 0.00 | 0.00 | 47 | 1009.1 |
| 20260905231706 | 98 | 164 | 5.0 | 6.0 | 0.00 | 0.00 | 0.00 | 46 | 1009.3 |
| 20260905231604 | 98 | 180 | 4.0 | 8.0 | 0.00 | 0.00 | 0.00 | 45 | 1008.9 |
| 20260905230806 | 99 | 154 | 5.0 | 8.0 | 0.00 | 0.00 | 0.00 | 45 | 1009.2 |
| 20260905230104 | 99 | 167 | 4.0 | 9.0 | 0.00 | 0.00 | 0.00 | 45 | 1008.8 |
| 20260905225906 | 99 | 154 | 6.0 | 9.0 | 0.00 | 0.00 | 0.00 | 44 | 1009.2 |
| 20260905225006 | 100 | 161 | 7.0 | 12.0 | 0.00 | 0.00 | 0.00 | 44 | 1009.1 |
| 20260905224513 | 100 | 169 | 7.0 | 10.0 | 0.00 | 0.00 | 0.00 | 43 | 1008.6 |
| 20260905224106 | 100 | 162 | 6.0 | 9.0 | 0.00 | 0.00 | 0.00 | 44 | 1009.0 |
| 20260905223206 | 101 | 164 | 6.0 | 11.0 | 0.00 | 0.00 | 0.00 | 42 | 1008.9 |
| 20260905223003 | 100 | 141 | 4.0 | 11.0 | 0.00 | 0.00 | 0.00 | 43 | 1008.5 |
| 20260905221506 | 101 | 202 | 5.0 | 10.0 | 0.00 | 0.00 | 0.00 | 43 | 1008.4 |
| 20260905221406 | 101 | 164 | 6.0 | 10.0 | 0.00 | 0.00 | 0.00 | 42 | 1008.8 |
| 20260905220506 | 101 | 155 | 4.0 | 9.0 | 0.00 | 0.00 | 0.00 | 44 | 1008.9 |
| 20260905220006 | 100 | 132 | 3.0 | 9.0 | 0.00 | 0.00 | 0.00 | 43 | 1008.5 |
| 20260905215606 | 101 | 166 | 4.0 | 9.0 | 0.00 | 0.00 | 0.00 | 42 | 1008.9 |
| 20260905214706 | 101 | 183 | 5.0 | 9.0 | 0.00 | 0.00 | 0.00 | 42 | 1009.0 |
| 20260905214505 | 101 | 192 | 4.0 | 9.0 | 0.00 | 0.00 | 0.00 | 42 | 1008.6 |
| 20260905213112 | 101 | 140 | 5.0 | 9.0 | 0.00 | 0.00 | 0.00 | 41 | 1008.6 |
| 20260905212906 | 102 | 182 | 4.0 | 9.0 | 0.00 | 0.00 | 0.00 | 41 | 1009.0 |
| 20260905211611 | 101 | 169 | 1.0 | 8.0 | 0.00 | 0.00 | 0.00 | 42 | 1008.7 |
| 20260905210206 | 102 | 139 | 2.0 | 4.0 | 0.00 | 0.00 | 0.00 | 42 | 1009.2 |
| 20260905210002 | 102 | 163 | 0.0 | 5.0 | 0.00 | 0.00 | 0.00 | 42 | 1008.9 |
| 20260905204504 | 103 | 155 | 7.0 | 10.0 | 0.00 | 0.00 | 0.00 | 41 | 1009.1 |
| 20260905204406 | 103 | 169 | 6.0 | 10.0 | 0.00 | 0.00 | 0.00 | 41 | 1009.5 |
| 20260905203506 | 103 | 170 | 6.0 | 11.0 | 0.00 | 0.00 | 0.00 | 41 | 1009.7 |
| 20260905203004 | 103 | 148 | 7.0 | 11.0 | 0.00 | 0.00 | 0.00 | 41 | 1009.3 |
| 20260905202606 | 104 | 162 | 6.0 | 10.0 | 0.00 | 0.00 | 0.00 | 41 | 1009.7 |
| 20260905201706 | 103 | 171 | 5.0 | 9.0 | 0.00 | 0.00 | 0.00 | 43 | 1009.8 |
| 20260905201610 | 103 | 157 | 5.0 | 9.0 | 0.00 | 0.00 | 0.00 | 42 | 1009.4 |
| 20260905200806 | 103 | 191 | 5.0 | 10.0 | 0.00 | 0.00 | 0.00 | 43 | 1010.0 |
| 20260905200120 | 103 | 180 | 4.0 | 9.0 | 0.00 | 0.00 | 0.00 | 42 | 1009.8 |
| 20260905195906 | 103 | 168 | 3.0 | 10.0 | 0.00 | 0.00 | 0.00 | 42 | 1010.1 |
| 20260905195006 | 102 | 174 | 4.0 | 10.0 | 0.00 | 0.00 | 0.00 | 42 | 1010.3 |
| 20260905194612 | 102 | 143 | 2.0 | 9.0 | 0.00 | 0.00 | 0.00 | 43 | 1010.0 |
| 20260905194106 | 102 | 171 | 6.0 | 10.0 | 0.00 | 0.00 | 0.00 | 42 | 1010.4 |
| 20260905193206 | 102 | 158 | 5.0 | 11.0 | 0.00 | 0.00 | 0.00 | 44 | 1010.6 |
| 20260905193104 | 101 | 130 | 6.0 | 11.0 | 0.00 | 0.00 | 0.00 | 44 | 1010.2 |
| 20260905191506 | 101 | 169 | 5.0 | 9.0 | 0.00 | 0.00 | 0.00 | 44 | 1010.5 |
| 20260905191406 | 101 | 176 | 4.0 | 10.0 | 0.00 | 0.00 | 0.00 | 44 | 1010.9 |
| 20260905190506 | 101 | 157 | 3.0 | 10.0 | 0.00 | 0.00 | 0.00 | 44 | 1011.1 |
| 20260905190107 | 99 | 175 | 4.0 | 8.0 | 0.00 | 0.00 | 0.00 | 45 | 1010.9 |
| 20260905185606 | 99 | 74 | 2.0 | 6.0 | 0.00 | 0.00 | 0.00 | 46 | 1011.3 |
| 20260905184706 | 99 | 89 | 3.0 | 7.0 | 0.00 | 0.00 | 0.00 | 47 | 1011.6 |
| 20260905184507 | 98 | 97 | 4.0 | 7.0 | 0.00 | 0.00 | 0.00 | 46 | 1011.2 |
| 20260905183106 | 99 | 113 | 5.0 | 10.0 | 0.00 | 0.00 | 0.00 | 46 | 1011.4 |
| 20260905182005 | 99 | 160 | 3.0 | 10.0 | 0.00 | 0.00 | 0.00 | 47 | 1011.9 |
| 20260905181504 | 99 | 100 | 3.0 | 11.0 | 0.00 | 0.00 | 0.00 | 47 | 1011.6 |
| 20260905181106 | 100 | 160 | 5.0 | 10.0 | 0.00 | 0.00 | 0.00 | 47 | 1012.1 |
| 20260905180005 | 99 | 157 | 6.0 | 10.0 | 0.00 | 0.00 | 0.00 | 47 | 1011.8 |
| 20260905175306 | 99 | 187 | 4.0 | 10.0 | 0.00 | 0.00 | 0.00 | 48 | 1012.3 |
| 20260905174607 | 98 | 140 | 1.0 | 7.0 | 0.00 | 0.00 | 0.00 | 50 | 1012.0 |